Theta_e
295 288 287 290 292 292 291 289 287 288 293 293 292 292 294 297 296 299 312 321 322 323 327 322 324 325 325 327 326 327 327 330 330 326 324 326 325 327 333 333 333 334 337 334
290 286 292 295 294 292 291 289 288 291 296 293 292 291 296 297 300 297 302 319 321 323 325 322 323 321 324 325 325 327 328 330 330 328 325 326 326 327 332 334 334 334 334 334
287 290 294 294 292 291 290 288 288 289 292 294 289 290 292 296 300 301 300 316 322 323 323 321 321 322 324 324 325 327 329 329 330 329 327 327 327 328 330 334 333 333 333 333
290 294 292 292 292 292 287 293 292 291 290 285 291 284 290 294 296 297 299 301 319 323 324 323 321 321 323 325 326 327 329 329 329 329 328 328 328 326 330 332 331 331 331 331
287 290 289 289 292 294 291 295 293 292 289 287 289 282 286 293 292 293 298 298 320 322 323 322 322 323 323 326 326 326 330 329 329 329 328 328 330 330 332 332 331 328 327 328
292 296 293 291 295 296 296 292 291 291 289 282 287 284 283 287 292 296 298 298 316 322 323 323 324 324 323 326 327 326 328 329 328 329 327 328 329 329 329 329 329 326 325 323
285 290 295 296 290 294 293 288 281 280 281 280 289 285 286 293 295 301 299 300 313 322 322 322 321 322 323 323 325 325 327 328 328 328 327 329 331 330 328 328 328 323 320 318
279 279 288 292 291 289 291 289 282 276 277 282 290 283 286 295 307 310 306 302 306 318 322 322 323 323 322 323 324 325 326 327 329 328 328 329 331 331 330 328 326 324 323 319
278 278 287 292 293 295 291 287 290 286 287 281 283 286 295 301 305 307 307 309 314 316 319 321 324 325 324 322 324 324 326 328 329 329 328 329 329 328 330 329 327 324 322 321
282 275 286 289 295 294 290 292 284 286 278 276 282 283 285 296 299 302 302 304 312 314 314 318 320 320 317 325 327 326 327 328 330 330 330 329 328 327 327 326 326 324 319 319
281 279 281 288 287 284 287 281 285 288 285 279 277 281 295 297 300 299 300 303 309 309 309 311 314 318 319 324 327 327 328 328 328 330 331 328 323 322 322 322 322 320 318 317
280 278 275 280 287 288 286 281 283 279 280 284 284 282 298 299 298 299 299 300 305 308 308 309 312 314 320 323 323 322 318 326 327 327 327 326 324 322 321 319 317 316 315 314
279 275 272 275 281 283 280 282 283 283 284 282 279 284 298 299 297 298 296 298 301 303 303 304 306 310 313 315 316 318 318 324 325 325 323 322 321 320 319 317 316 315 315 313
284 275 272 270 274 279 276 279 281 281 278 277 281 288 294 294 295 296 296 298 298 300 301 301 301 304 310 313 314 314 315 316 318 321 321 319 320 318 316 316 315 312 312 311
280 274 276 276 278 279 278 279 280 280 281 278 282 287 291 292 293 296 297 298 298 298 298 299 299 302 306 311 313 314 314 314 315 314 314 313 314 315 314 313 313 311 312 311
280 274 276 274 279 280 278 280 280 281 282 284 285 289 294 297 296 295 296 295 294 295 296 297 298 300 304 306 310 314 314 313 313 311 310 310 310 310 309 310 311 310 310 310
277 275 274 271 276 276 273 280 282 283 284 283 279 289 292 291 292 291 290 291 291 292 293 293 293 294 299 303 304 308 311 312 311 309 309 307 307 307 307 307 308 306 306 305
277 276 275 272 274 258 277 284 285 282 284 285 286 287 288 291 291 291 291 290 290 291 291 292 292 292 293 301 304 308 312 311 310 308 307 307 306 305 305 305 305 305 305 303
282 277 273 268 270 274 277 281 282 281 280 285 285 287 287 289 290 288 291 291 290 290 291 291 291 291 291 294 301 301 302 305 309 309 308 305 303 303 303 302 303 304 304 304
281 281 274 272 268 264 276 283 286 285 274 287 286 286 286 287 282 284 291 292 292 292 291 291 292 291 291 291 297 296 296 297 298 304 307 305 303 301 301 301 301 302 303 303
274 275 273 272 268 273 279 285 286 273 276 288 289 288 287 286 288 291 292 291 292 293 292 291 292 290 290 291 292 291 292 292 296 300 306 307 304 301 299 300 300 301 301 301
273 271 271 272 269 266 282 281 277 282 286 289 289 288 287 287 289 290 291 291 292 292 292 292 289 289 291 292 291 290 290 292 294 296 301 304 304 303 301 299 300 299 299 299
271 275 270 273 272 280 283 282 281 283 281 284 288 289 289 287 286 288 288 289 289 291 291 291 289 289 290 290 291 290 291 293 293 293 293 299 303 303 300 296 298 298 298 298
275 278 273 273 276 278 281 283 284 284 283 285 287 286 287 286 287 287 287 288 288 289 290 291 290 288 288 289 291 291 292 292 292 292 292 293 298 301 301 298 296 294 296 296
275 276 273 273 276 278 280 281 282 283 284 284 285 286 286 287 286 287 286 286 287 287 288 289 288 289 289 290 290 290 291 292 290 290 291 291 296 296 296 297 296 295 295 297
276 274 272 271 276 276 276 280 283 282 282 283 283 283 285 287 286 287 286 285 286 286 288 288 288 289 289 289 289 290 291 292 290 289 289 289 290 290 293 294 293 292 293 291
Wind_Speed
15 12 20 27 25 20 13 14 13 9 10 16 19 14 15 13 7 12 18 21 21 23 19 14 10 21 21 23 23 20 21 15 9 7 5 4 6 3 5 8 8 8 6 7
15 20 29 25 17 18 13 19 19 9 20 13 18 18 22 14 16 10 13 23 24 22 20 14 17 10 22 25 25 21 22 20 13 10 5 4 5 3 5 6 7 8 8 8
23 26 23 19 20 18 20 20 20 18 13 13 8 17 16 12 14 15 11 23 26 27 25 20 23 20 21 26 27 24 24 22 18 17 7 4 4 3 4 7 6 6 8 7
19 24 22 22 24 19 19 25 22 21 14 12 9 14 15 17 18 11 13 13 26 26 26 25 26 24 21 23 22 23 23 23 19 20 16 14 12 9 7 7 5 7 7 8
20 18 15 26 25 22 24 15 18 22 18 11 18 3 7 10 7 10 15 10 27 25 27 28 27 27 21 23 23 23 21 22 21 17 18 13 13 9 9 8 12 8 6 8
8 17 12 21 21 23 23 16 18 15 15 14 15 7 7 7 11 12 14 11 25 28 28 29 27 26 18 21 21 19 20 20 20 17 18 16 15 13 12 12 10 8 5 5
22 10 15 17 17 16 16 17 12 12 12 12 15 6 8 13 7 7 20 18 22 27 25 22 21 19 14 17 21 20 22 20 19 17 10 15 18 17 14 14 11 10 5 4
11 12 10 11 9 17 14 18 11 9 6 13 14 6 6 4 6 6 3 13 17 23 22 23 20 15 11 14 19 18 20 20 20 20 10 12 13 11 11 14 12 10 9 7
11 11 26 15 19 1 10 14 10 7 5 2 4 5 4 6 8 11 14 17 12 8 10 15 17 19 10 7 9 12 12 14 16 17 8 7 7 8 10 11 13 10 9 9
10 13 10 20 15 15 13 8 3 2 6 5 5 7 7 8 7 8 13 15 18 19 17 12 7 2 5 7 1 8 11 12 15 17 12 8 9 8 9 11 13 11 9 12
6 6 15 11 15 18 14 13 11 6 3 4 3 6 7 15 16 13 13 16 17 17 14 11 10 7 10 6 8 4 4 13 12 13 14 12 8 7 7 10 10 14 12 12
6 4 10 11 11 18 15 18 17 6 8 5 7 7 9 17 12 12 13 15 15 19 15 10 12 12 9 10 11 15 9 12 6 7 9 10 10 10 10 11 12 13 13 10
7 6 10 13 9 14 10 21 19 14 9 5 3 1 6 20 15 11 11 12 14 17 15 10 10 12 12 9 8 7 7 9 4 6 7 7 10 5 6 11 11 8 10 12
4 3 3 3 9 9 13 20 17 12 3 13 5 6 8 6 15 13 11 14 14 14 14 11 9 8 12 9 8 7 5 6 3 11 12 1 8 8 8 6 14 13 11 12
10 7 12 11 17 17 16 16 13 8 11 6 15 9 12 14 5 11 14 15 16 15 14 13 10 8 7 10 8 8 8 8 6 6 9 7 8 10 11 10 7 9 13 10
11 7 12 14 12 8 11 16 13 9 12 10 13 4 8 13 9 11 13 14 15 16 15 15 13 12 11 9 9 10 8 9 8 7 7 6 8 7 8 8 8 9 9 9
13 8 8 13 12 15 7 2 7 8 8 8 7 7 7 14 13 12 13 15 15 16 14 14 12 12 10 9 7 8 10 9 10 9 8 7 6 6 6 7 8 7 8 9
15 12 5 9 9 3 7 9 5 3 4 5 11 9 12 8 11 14 14 16 15 15 13 11 8 10 12 10 13 13 10 9 10 10 9 7 6 5 5 6 7 8 8 9
10 9 5 3 7 12 15 4 4 2 1 5 6 8 9 11 8 14 14 13 12 11 8 7 6 6 9 11 12 13 12 9 9 9 8 6 5 5 5 5 6 5 7 7
16 8 5 3 3 3 4 7 3 2 4 8 5 3 4 9 3 5 10 11 9 8 6 6 7 7 8 9 9 12 10 10 9 5 8 9 8 6 5 5 5 3 5 6
10 7 8 7 3 4 16 23 8 3 5 5 8 6 5 3 3 7 6 8 8 4 5 7 7 6 6 7 7 8 7 7 7 8 5 6 7 7 7 5 3 4 4 5
3 3 3 5 5 8 22 14 9 9 10 3 6 9 10 7 4 11 13 11 9 12 9 5 5 5 5 6 7 7 7 6 8 8 10 7 6 5 5 6 3 3 3 4
7 3 3 4 6 12 9 13 9 8 12 18 6 9 11 12 5 3 3 6 1 3 11 11 7 5 5 5 6 5 1 5 6 8 8 7 6 6 5 5 5 2 2 2
7 8 5 7 1 13 8 12 10 13 11 14 8 11 11 2 7 8 9 6 5 7 7 6 9 6 6 6 6 2 3 4 4 4 5 6 6 5 4 3 3 3 3 2
7 8 10 13 11 8 7 11 10 9 12 9 11 9 9 12 15 8 2 1 2 2 4 2 2 1 4 6 6 6 5 4 3 2 2 3 4 5 4 2 4 4 4 6
6 8 7 8 5 7 8 11 13 7 11 13 13 13 10 5 12 16 8 5 2 3 4 4 4 3 3 2 5 6 7 5 4 3 2 2 1 2 3 3 0 3 3 8
Wind_Direction
278 254 233 232 231 231 224 242 231 257 239 218 237 223 223 229 200 224 171 175 176 178 180 179 173 164 162 164 164 158 161 163 153 166 146 146 177 155 176 162 164 142 131 112
271 242 239 236 242 227 233 236 247 247 234 208 230 231 214 205 226 201 187 179 179 176 174 171 177 167 162 168 166 162 167 167 161 172 161 151 169 156 160 151 158 144 136 126
267 254 255 234 238 227 225 233 245 240 267 249 212 229 212 218 204 225 205 184 178 175 176 171 179 192 172 171 169 166 168 170 166 170 162 146 163 115 125 145 147 147 138 142
260 257 240 221 237 225 230 230 242 257 249 254 242 242 206 199 207 216 226 187 183 179 180 176 178 185 173 172 170 168 168 172 173 172 176 175 179 177 152 157 147 149 142 146
245 256 223 242 218 229 242 234 233 242 254 257 273 155 230 155 213 229 233 197 180 179 180 183 181 180 167 169 174 176 168 171 173 179 184 178 174 167 148 149 148 151 147 145
283 266 283 242 235 224 239 247 258 250 240 246 243 166 265 192 204 235 238 211 177 184 182 182 183 179 169 171 171 172 171 178 180 175 189 186 169 158 154 154 154 160 154 149
316 284 261 251 252 250 228 226 236 243 242 237 229 205 226 217 203 225 223 227 182 175 179 177 175 177 167 164 178 178 176 176 179 190 200 186 169 163 155 158 154 155 151 142
333 332 16 9 279 240 237 229 210 217 201 230 236 195 239 228 94 34 61 217 179 176 165 168 163 154 177 186 177 184 178 176 176 187 190 196 177 168 164 160 155 162 166 159
343 293 327 347 330 5 283 237 199 219 224 188 195 287 23 124 75 64 42 68 67 107 108 144 148 157 134 177 197 164 174 178 178 183 172 173 176 155 169 159 157 156 151 154
337 293 316 329 331 32 26 347 297 166 189 220 259 202 212 134 124 87 78 68 75 73 63 82 88 108 135 109 225 174 158 172 182 179 176 175 173 153 147 143 151 145 144 147
13 299 314 312 37 17 11 17 345 314 152 205 256 261 1 173 156 129 98 85 90 87 77 59 72 48 180 133 127 348 249 172 175 185 176 165 130 131 128 132 140 138 142 147
340 313 308 290 337 30 83 33 14 360 326 311 188 262 335 99 78 86 83 85 90 97 97 81 67 73 135 155 171 176 272 258 222 186 162 162 150 150 153 143 137 138 142 139
325 335 330 350 26 23 12 351 349 322 255 23 307 166 34 101 92 78 77 77 79 88 93 94 83 82 86 94 86 162 246 223 203 191 110 135 129 119 137 139 135 137 150 147
334 341 114 283 269 271 308 323 333 339 337 329 4 345 113 67 105 100 79 76 76 77 82 84 68 83 103 101 100 94 78 69 67 137 118 270 150 132 134 184 148 149 151 154
3 320 307 323 306 289 284 307 316 326 314 313 306 331 346 335 76 94 91 83 80 74 69 65 55 44 95 116 105 99 82 72 74 75 104 133 127 141 142 139 135 146 150 158
304 285 313 299 296 321 314 295 289 272 293 308 330 40 354 321 88 83 81 79 77 72 62 52 39 37 40 59 124 113 109 103 85 85 81 70 84 99 118 125 145 155 146 159
273 274 297 291 317 315 309 311 18 15 58 304 14 358 39 354 48 66 73 70 67 66 62 52 34 17 12 48 82 123 119 116 109 100 83 75 78 97 113 132 145 142 143 147
253 252 249 277 304 337 239 356 139 69 97 332 333 23 346 356 41 58 60 66 56 53 53 54 37 17 7 24 58 71 101 103 103 103 107 107 100 103 106 124 135 146 152 156
275 242 239 223 265 279 306 3 13 56 125 155 282 343 18 345 354 52 58 62 63 54 39 41 54 27 12 16 44 52 53 68 96 115 114 101 101 112 117 118 127 125 146 144
319 301 182 193 238 275 316 41 62 317 267 343 210 246 8 346 140 53 56 55 54 49 34 37 54 33 23 12 51 48 35 31 21 52 133 136 135 130 127 131 129 130 136 150
302 327 278 274 247 267 5 354 34 312 336 24 47 73 124 99 305 321 22 49 27 19 30 21 67 63 26 20 46 61 44 24 9 11 60 122 132 127 124 119 101 121 127 135
339 355 313 337 224 239 1 345 357 314 313 122 90 101 84 69 58 350 349 12 48 343 354 34 45 75 25 26 58 60 48 24 14 15 37 48 100 102 98 102 91 102 130 144
271 215 205 167 283 311 348 12 38 2 2 354 326 167 136 138 142 182 245 299 312 137 339 353 18 37 22 17 60 59 68 63 43 25 22 39 64 106 117 119 129 123 162 158
330 352 336 334 311 315 336 9 20 359 351 328 338 326 348 316 172 190 186 208 273 320 162 229 312 1 9 7 15 26 25 41 91 73 27 49 69 91 126 132 135 140 170 203
270 304 309 295 298 332 1 343 346 339 324 325 318 306 334 340 335 273 201 312 315 315 316 310 214 326 342 350 355 351 4 354 52 62 57 53 104 107 87 147 180 176 211 191
248 261 267 285 315 275 304 308 306 312 306 306 306 313 311 191 285 310 245 195 214 307 316 292 293 279 245 336 353 349 342 7 27 25 35 31 151 153 149 156 115 330 210 206